Location: Gouy
(50.0008°N, 3.2556°E)
Time: 04:10:38
(UTC+00:00)

SL-24 R/B - Pass Details

Date: 23 May 2024
Orbit: 716 x 1115 km, 91.9° (Epoch: 21 June)

Event Time Altitude Azimuth Distance (km) Brightness Sun altitude
Exits shadow 02:28:19 - 182° (S) 2,439 6.6 -10.5°
Reaches altitude 10° 02:28:49 10° 183° (S) 2,237 6.4 -10.5°
Maximum altitude 02:33:41 69° 267° (W) 773 4.4 -10.0°
Drops below altitude 10° 02:38:30 10° 351° (N) 2,219 7.5 -9.5°
Sets 02:40:49 0° 354° (N) 3,159 8.4 -9.2°
